Location: 22
(39.7117°N, 89.5929°W)
Time: 08:58:10
(UTC-05:00)

S-56A Canister/Altair - Pass Details

Date: 09 February 2023
Orbit: 638 x 2493 km, 38.9° (Epoch: 25 March)

Event Time Altitude Azimuth Distance (km) Brightness Sun altitude
Rises 14:31:03 0° 277° (W) 3,183 11.1 26.9°
Reaches altitude 10° 14:33:28 10° 265° (W) 2,404 10.8 26.6°
Maximum altitude 14:38:15 29° 206° (SSW) 1,738 11.5 26.0°
Drops below altitude 10° 14:44:43 10° 150° (SSE) 3,296 11.1 25.2°
Sets 14:48:39 0° 141° (SE) 4,607 11.6 24.7°
